#datetime,building,power
2021-12-26T00:00:00,mfh,12.50
2021-12-26T00:01:00,mfh,12.55
2021-12-26T00:02:00,mfh,12.55
2021-12-26T00:03:00,mfh,12.51
2021-12-26T00:04:00,mfh,11.74
2021-12-26T00:05:00,mfh,11.75
2021-12-26T00:06:00,mfh,11.76
2021-12-26T00:07:00,mfh,12.36
2021-12-26T00:08:00,mfh,12.55
2021-12-26T00:09:00,mfh,12.69
2021-12-26T00:10:00,mfh,12.71
2021-12-26T00:11:00,mfh,12.95
2021-12-26T00:12:00,mfh,12.01
2021-12-26T00:13:00,mfh,11.99
2021-12-26T00:14:00,mfh,12.02
2021-12-26T00:15:00,mfh,13.04
2021-12-26T00:16:00,mfh,12.56
2021-12-26T00:17:00,mfh,12.93
2021-12-26T00:18:00,mfh,12.69
2021-12-26T00:19:00,mfh,12.65
2021-12-26T00:20:00,mfh,12.03
2021-12-26T00:21:00,mfh,12.04
2021-12-26T00:22:00,mfh,12.05
2021-12-26T00:23:00,mfh,12.06
2021-12-26T00:24:00,mfh,12.65
2021-12-26T00:25:00,mfh,12.82
2021-12-26T00:26:00,mfh,12.69
2021-12-26T00:27:00,mfh,12.63
2021-12-26T00:28:00,mfh,12.64
2021-12-26T00:29:00,mfh,12.03
2021-12-26T00:30:00,mfh,12.12
2021-12-26T00:31:00,mfh,12.82
2021-12-26T00:32:00,mfh,12.09
2021-12-26T00:33:00,mfh,13.08
2021-12-26T00:34:00,mfh,13.84
2021-12-26T00:35:00,mfh,12.74
2021-12-26T00:36:00,mfh,12.86
2021-12-26T00:37:00,mfh,12.17
2021-12-26T00:38:00,mfh,12.29
2021-12-26T00:39:00,mfh,12.17
2021-12-26T00:40:00,mfh,12.20
2021-12-26T00:41:00,mfh,13.19
2021-12-26T00:42:00,mfh,12.81
2021-12-26T00:43:00,mfh,12.75
2021-12-26T00:44:00,mfh,15.19
2021-12-26T00:45:00,mfh,14.77
2021-12-26T00:46:00,mfh,14.12
2021-12-26T00:47:00,mfh,14.14
2021-12-26T00:48:00,mfh,14.07
2021-12-26T00:49:00,mfh,14.45
2021-12-26T00:50:00,mfh,14.59
2021-12-26T00:51:00,mfh,15.47
2021-12-26T00:52:00,mfh,14.61
2021-12-26T00:53:00,mfh,14.61
2021-12-26T00:54:00,mfh,14.05
2021-12-26T00:55:00,mfh,14.16
2021-12-26T00:56:00,mfh,14.59
2021-12-26T00:57:00,mfh,14.70
2021-12-26T00:58:00,mfh,14.91
2021-12-26T00:59:00,mfh,14.84
2021-12-26T01:00:00,mfh,14.83
2021-12-26T01:01:00,mfh,14.70
2021-12-26T01:02:00,mfh,14.05
2021-12-26T01:03:00,mfh,14.04
2021-12-26T01:04:00,mfh,15.17
2021-12-26T01:05:00,mfh,14.55
2021-12-26T01:06:00,mfh,15.08
2021-12-26T01:07:00,mfh,13.13
2021-12-26T01:08:00,mfh,13.09
2021-12-26T01:09:00,mfh,13.09
2021-12-26T01:10:00,mfh,12.93
2021-12-26T01:11:00,mfh,12.70
2021-12-26T01:12:00,mfh,12.45
2021-12-26T01:13:00,mfh,12.59
2021-12-26T01:14:00,mfh,12.77
2021-12-26T01:15:00,mfh,12.79
2021-12-26T01:16:00,mfh,12.66
2021-12-26T01:17:00,mfh,12.70
2021-12-26T01:18:00,mfh,12.08
2021-12-26T01:19:00,mfh,12.01
2021-12-26T01:20:00,mfh,11.91
2021-12-26T01:21:00,mfh,11.93
2021-12-26T01:22:00,mfh,12.62
2021-12-26T01:23:00,mfh,12.66
2021-12-26T01:24:00,mfh,12.68
2021-12-26T01:25:00,mfh,12.80
2021-12-26T01:26:00,mfh,13.43
2021-12-26T01:27:00,mfh,12.06
2021-12-26T01:28:00,mfh,12.02
2021-12-26T01:29:00,mfh,11.91
2021-12-26T01:30:00,mfh,11.89
2021-12-26T01:31:00,mfh,12.54
2021-12-26T01:32:00,mfh,12.81
2021-12-26T01:33:00,mfh,13.30
2021-12-26T01:34:00,mfh,13.82
2021-12-26T01:35:00,mfh,13.55
2021-12-26T01:36:00,mfh,12.99
2021-12-26T01:37:00,mfh,12.99
2021-12-26T01:38:00,mfh,12.93
2021-12-26T01:39:00,mfh,12.71
2021-12-26T01:40:00,mfh,12.42
2021-12-26T01:41:00,mfh,12.49
2021-12-26T01:42:00,mfh,12.62
2021-12-26T01:43:00,mfh,12.65
2021-12-26T01:44:00,mfh,11.88
2021-12-26T01:45:00,mfh,11.88
2021-12-26T01:46:00,mfh,12.33
2021-12-26T01:47:00,mfh,12.19
2021-12-26T01:48:00,mfh,12.60
2021-12-26T01:49:00,mfh,12.63
2021-12-26T01:50:00,mfh,12.59
2021-12-26T01:51:00,mfh,13.07
2021-12-26T01:52:00,mfh,12.47
2021-12-26T01:53:00,mfh,12.01
2021-12-26T01:54:00,mfh,12.01
2021-12-26T01:55:00,mfh,12.04
2021-12-26T01:56:00,mfh,12.75
2021-12-26T01:57:00,mfh,12.93
2021-12-26T01:58:00,mfh,12.79
2021-12-26T01:59:00,mfh,12.91
2021-12-26T02:00:00,mfh,14.84
2021-12-26T02:01:00,mfh,14.22
2021-12-26T02:02:00,mfh,14.21
2021-12-26T02:03:00,mfh,14.11
2021-12-26T02:04:00,mfh,14.10
2021-12-26T02:05:00,mfh,14.83
2021-12-26T02:06:00,mfh,15.18
2021-12-26T02:07:00,mfh,14.83
2021-12-26T02:08:00,mfh,14.84
2021-12-26T02:09:00,mfh,14.82
2021-12-26T02:10:00,mfh,14.56
2021-12-26T02:11:00,mfh,14.17
2021-12-26T02:12:00,mfh,14.23
2021-12-26T02:13:00,mfh,14.87
2021-12-26T02:14:00,mfh,14.83
2021-12-26T02:15:00,mfh,14.74
2021-12-26T02:16:00,mfh,14.75
2021-12-26T02:17:00,mfh,14.77
2021-12-26T02:18:00,mfh,14.07
2021-12-26T02:19:00,mfh,13.98
2021-12-26T02:20:00,mfh,14.63
2021-12-26T02:21:00,mfh,14.61
2021-12-26T02:22:00,mfh,12.58
2021-12-26T02:23:00,mfh,12.55
2021-12-26T02:24:00,mfh,12.54
2021-12-26T02:25:00,mfh,12.58
2021-12-26T02:26:00,mfh,12.56
2021-12-26T02:27:00,mfh,12.03
2021-12-26T02:28:00,mfh,12.04
2021-12-26T02:29:00,mfh,11.97
2021-12-26T02:30:00,mfh,12.51
2021-12-26T02:31:00,mfh,12.47
2021-12-26T02:32:00,mfh,12.57
2021-12-26T02:33:00,mfh,12.60
2021-12-26T02:34:00,mfh,12.59
2021-12-26T02:35:00,mfh,12.11
2021-12-26T02:36:00,mfh,12.06
2021-12-26T02:37:00,mfh,12.10
2021-12-26T02:38:00,mfh,12.54
2021-12-26T02:39:00,mfh,12.59
2021-12-26T02:40:00,mfh,13.28
2021-12-26T02:41:00,mfh,13.25
2021-12-26T02:42:00,mfh,13.51
2021-12-26T02:43:00,mfh,12.13
2021-12-26T02:44:00,mfh,12.11
2021-12-26T02:45:00,mfh,12.24
2021-12-26T02:46:00,mfh,12.25
2021-12-26T02:47:00,mfh,13.06
2021-12-26T02:48:00,mfh,12.87
2021-12-26T02:49:00,mfh,12.86
2021-12-26T02:50:00,mfh,12.89
2021-12-26T02:51:00,mfh,12.46
2021-12-26T02:52:00,mfh,12.19
2021-12-26T02:53:00,mfh,12.09
2021-12-26T02:54:00,mfh,12.02
2021-12-26T02:55:00,mfh,12.55
2021-12-26T02:56:00,mfh,12.53
2021-12-26T02:57:00,mfh,12.57
2021-12-26T02:58:00,mfh,12.59
2021-12-26T02:59:00,mfh,12.61
2021-12-26T03:00:00,mfh,11.94
2021-12-26T03:01:00,mfh,12.02
2021-12-26T03:02:00,mfh,11.97
2021-12-26T03:03:00,mfh,11.85
2021-12-26T03:04:00,mfh,12.51
2021-12-26T03:05:00,mfh,12.84
2021-12-26T03:06:00,mfh,12.89
2021-12-26T03:07:00,mfh,12.56
2021-12-26T03:08:00,mfh,11.80
2021-12-26T03:09:00,mfh,11.81
2021-12-26T03:10:00,mfh,11.89
2021-12-26T03:11:00,mfh,11.87
2021-12-26T03:12:00,mfh,12.48
2021-12-26T03:13:00,mfh,12.47
2021-12-26T03:14:00,mfh,12.66
2021-12-26T03:15:00,mfh,14.52
2021-12-26T03:16:00,mfh,14.53
2021-12-26T03:17:00,mfh,14.03
2021-12-26T03:18:00,mfh,13.99
2021-12-26T03:19:00,mfh,13.97
2021-12-26T03:20:00,mfh,14.69
2021-12-26T03:21:00,mfh,14.61
2021-12-26T03:22:00,mfh,15.33
2021-12-26T03:23:00,mfh,15.03
2021-12-26T03:24:00,mfh,14.74
2021-12-26T03:25:00,mfh,14.06
2021-12-26T03:26:00,mfh,13.98
2021-12-26T03:27:00,mfh,13.96
2021-12-26T03:28:00,mfh,13.96
2021-12-26T03:29:00,mfh,14.64
2021-12-26T03:30:00,mfh,14.70
2021-12-26T03:31:00,mfh,14.79
2021-12-26T03:32:00,mfh,14.82
2021-12-26T03:33:00,mfh,14.82
2021-12-26T03:34:00,mfh,14.25
2021-12-26T03:35:00,mfh,14.11
2021-12-26T03:36:00,mfh,14.07
2021-12-26T03:37:00,mfh,15.28
2021-12-26T03:38:00,mfh,12.81
2021-12-26T03:39:00,mfh,12.81
2021-12-26T03:40:00,mfh,12.89
2021-12-26T03:41:00,mfh,12.84
2021-12-26T03:42:00,mfh,12.00
2021-12-26T03:43:00,mfh,12.18
2021-12-26T03:44:00,mfh,12.25
2021-12-26T03:45:00,mfh,12.18
2021-12-26T03:46:00,mfh,12.70
2021-12-26T03:47:00,mfh,13.33
2021-12-26T03:48:00,mfh,13.48
2021-12-26T03:49:00,mfh,13.52
2021-12-26T03:50:00,mfh,12.80
2021-12-26T03:51:00,mfh,13.47
2021-12-26T03:52:00,mfh,12.86
2021-12-26T03:53:00,mfh,11.88
2021-12-26T03:54:00,mfh,12.60
2021-12-26T03:55:00,mfh,12.74
2021-12-26T03:56:00,mfh,12.68
2021-12-26T03:57:00,mfh,12.61
2021-12-26T03:58:00,mfh,12.66
2021-12-26T03:59:00,mfh,12.33
2021-12-26T04:00:00,mfh,11.80
2021-12-26T04:01:00,mfh,11.79
2021-12-26T04:02:00,mfh,12.04
2021-12-26T04:03:00,mfh,12.54
2021-12-26T04:04:00,mfh,12.64
2021-12-26T04:05:00,mfh,13.34
2021-12-26T04:06:00,mfh,12.79
2021-12-26T04:07:00,mfh,12.09
2021-12-26T04:08:00,mfh,12.26
2021-12-26T04:09:00,mfh,12.04
2021-12-26T04:10:00,mfh,12.03
2021-12-26T04:11:00,mfh,13.01
2021-12-26T04:12:00,mfh,12.52
2021-12-26T04:13:00,mfh,12.57
2021-12-26T04:14:00,mfh,12.60
2021-12-26T04:15:00,mfh,12.68
2021-12-26T04:16:00,mfh,11.99
2021-12-26T04:17:00,mfh,11.89
2021-12-26T04:18:00,mfh,12.00
2021-12-26T04:19:00,mfh,12.55
2021-12-26T04:20:00,mfh,12.72
2021-12-26T04:21:00,mfh,13.06
2021-12-26T04:22:00,mfh,12.89
2021-12-26T04:23:00,mfh,12.87
2021-12-26T04:24:00,mfh,12.13
2021-12-26T04:25:00,mfh,12.08
2021-12-26T04:26:00,mfh,11.97
2021-12-26T04:27:00,mfh,12.56
2021-12-26T04:28:00,mfh,12.50
2021-12-26T04:29:00,mfh,14.52
2021-12-26T04:30:00,mfh,14.53
2021-12-26T04:31:00,mfh,14.58
2021-12-26T04:32:00,mfh,14.51
2021-12-26T04:33:00,mfh,13.81
2021-12-26T04:34:00,mfh,14.20
2021-12-26T04:35:00,mfh,14.20
2021-12-26T04:36:00,mfh,14.72
2021-12-26T04:37:00,mfh,14.68
2021-12-26T04:38:00,mfh,14.70
2021-12-26T04:39:00,mfh,14.47
2021-12-26T04:40:00,mfh,14.44
2021-12-26T04:41:00,mfh,13.84
2021-12-26T04:42:00,mfh,13.83
2021-12-26T04:43:00,mfh,13.84
2021-12-26T04:44:00,mfh,14.52
2021-12-26T04:45:00,mfh,14.56
2021-12-26T04:46:00,mfh,14.61
2021-12-26T04:47:00,mfh,15.12
2021-12-26T04:48:00,mfh,14.75
2021-12-26T04:49:00,mfh,13.96
2021-12-26T04:50:00,mfh,13.87
2021-12-26T04:51:00,mfh,13.87
2021-12-26T04:52:00,mfh,11.92
2021-12-26T04:53:00,mfh,12.66
2021-12-26T04:54:00,mfh,12.58
2021-12-26T04:55:00,mfh,13.00
2021-12-26T04:56:00,mfh,12.61
2021-12-26T04:57:00,mfh,11.92
2021-12-26T04:58:00,mfh,12.42
2021-12-26T04:59:00,mfh,12.07
2021-12-26T05:00:00,mfh,12.42
2021-12-26T05:01:00,mfh,12.89
2021-12-26T05:02:00,mfh,12.78
2021-12-26T05:03:00,mfh,12.96
2021-12-26T05:04:00,mfh,13.10
2021-12-26T05:05:00,mfh,13.22
2021-12-26T05:06:00,mfh,12.45
2021-12-26T05:07:00,mfh,12.46
2021-12-26T05:08:00,mfh,12.51
2021-12-26T05:09:00,mfh,12.25
2021-12-26T05:10:00,mfh,12.89
2021-12-26T05:11:00,mfh,13.74
2021-12-26T05:12:00,mfh,13.47
2021-12-26T05:13:00,mfh,12.92
2021-12-26T05:14:00,mfh,12.27
2021-12-26T05:15:00,mfh,12.33
2021-12-26T05:16:00,mfh,12.21
2021-12-26T05:17:00,mfh,12.72
2021-12-26T05:18:00,mfh,13.17
2021-12-26T05:19:00,mfh,12.67
2021-12-26T05:20:00,mfh,12.60
2021-12-26T05:21:00,mfh,12.65
2021-12-26T05:22:00,mfh,12.59
2021-12-26T05:23:00,mfh,13.39
2021-12-26T05:24:00,mfh,13.59
2021-12-26T05:25:00,mfh,13.72
2021-12-26T05:26:00,mfh,13.72
2021-12-26T05:27:00,mfh,14.30
2021-12-26T05:28:00,mfh,14.32
2021-12-26T05:29:00,mfh,12.67
2021-12-26T05:30:00,mfh,12.84
2021-12-26T05:31:00,mfh,12.14
2021-12-26T05:32:00,mfh,12.39
2021-12-26T05:33:00,mfh,12.31
2021-12-26T05:34:00,mfh,12.30
2021-12-26T05:35:00,mfh,13.81
2021-12-26T05:36:00,mfh,12.90
2021-12-26T05:37:00,mfh,13.47
2021-12-26T05:38:00,mfh,13.80
2021-12-26T05:39:00,mfh,13.02
2021-12-26T05:40:00,mfh,12.29
2021-12-26T05:41:00,mfh,12.28
2021-12-26T05:42:00,mfh,14.25
2021-12-26T05:43:00,mfh,14.20
2021-12-26T05:44:00,mfh,14.86
2021-12-26T05:45:00,mfh,14.88
2021-12-26T05:46:00,mfh,14.82
2021-12-26T05:47:00,mfh,14.68
2021-12-26T05:48:00,mfh,13.98
2021-12-26T05:49:00,mfh,14.05
2021-12-26T05:50:00,mfh,14.01
2021-12-26T05:51:00,mfh,14.12
2021-12-26T05:52:00,mfh,14.59
2021-12-26T05:53:00,mfh,14.89
2021-12-26T05:54:00,mfh,14.53
2021-12-26T05:55:00,mfh,14.49
2021-12-26T05:56:00,mfh,14.45
2021-12-26T05:57:00,mfh,13.96
2021-12-26T05:58:00,mfh,13.93
2021-12-26T05:59:00,mfh,13.75
2021-12-26T06:00:00,mfh,14.34
2021-12-26T06:01:00,mfh,14.70
2021-12-26T06:02:00,mfh,14.66
2021-12-26T06:03:00,mfh,16.44
2021-12-26T06:04:00,mfh,15.29
2021-12-26T06:05:00,mfh,12.39
2021-12-26T06:06:00,mfh,12.74
2021-12-26T06:07:00,mfh,13.31
2021-12-26T06:08:00,mfh,12.62
2021-12-26T06:09:00,mfh,13.40
2021-12-26T06:10:00,mfh,13.35
2021-12-26T06:11:00,mfh,13.60
2021-12-26T06:12:00,mfh,12.88
2021-12-26T06:13:00,mfh,12.86
2021-12-26T06:14:00,mfh,12.15
2021-12-26T06:15:00,mfh,12.21
2021-12-26T06:16:00,mfh,12.08
2021-12-26T06:17:00,mfh,13.75
2021-12-26T06:18:00,mfh,12.62
2021-12-26T06:19:00,mfh,12.63
2021-12-26T06:20:00,mfh,12.66
2021-12-26T06:21:00,mfh,12.66
2021-12-26T06:22:00,mfh,12.10
2021-12-26T06:23:00,mfh,12.12
2021-12-26T06:24:00,mfh,12.16
2021-12-26T06:25:00,mfh,12.78
2021-12-26T06:26:00,mfh,13.69
2021-12-26T06:27:00,mfh,12.83
2021-12-26T06:28:00,mfh,12.90
2021-12-26T06:29:00,mfh,12.90
2021-12-26T06:30:00,mfh,12.19
2021-12-26T06:31:00,mfh,12.03
2021-12-26T06:32:00,mfh,12.11
2021-12-26T06:33:00,mfh,12.01
2021-12-26T06:34:00,mfh,12.55
2021-12-26T06:35:00,mfh,12.49
2021-12-26T06:36:00,mfh,12.49
2021-12-26T06:37:00,mfh,12.56
2021-12-26T06:38:00,mfh,11.86
2021-12-26T06:39:00,mfh,11.85
2021-12-26T06:40:00,mfh,12.16
2021-12-26T06:41:00,mfh,12.15
2021-12-26T06:42:00,mfh,13.44
2021-12-26T06:43:00,mfh,12.85
2021-12-26T06:44:00,mfh,14.37
2021-12-26T06:45:00,mfh,14.38
2021-12-26T06:46:00,mfh,17.34
2021-12-26T06:47:00,mfh,16.73
2021-12-26T06:48:00,mfh,16.73
2021-12-26T06:49:00,mfh,16.82
2021-12-26T06:50:00,mfh,16.73
2021-12-26T06:51:00,mfh,17.25
2021-12-26T06:52:00,mfh,17.28
2021-12-26T06:53:00,mfh,17.47
2021-12-26T06:54:00,mfh,17.39
2021-12-26T06:55:00,mfh,16.60
2021-12-26T06:56:00,mfh,18.54
2021-12-26T06:57:00,mfh,18.49
2021-12-26T06:58:00,mfh,18.72
2021-12-26T06:59:00,mfh,19.36
2021-12-26T07:00:00,mfh,19.44
2021-12-26T07:01:00,mfh,30.61
2021-12-26T07:02:00,mfh,30.47
2021-12-26T07:03:00,mfh,29.90
2021-12-26T07:04:00,mfh,29.96
2021-12-26T07:05:00,mfh,30.05
2021-12-26T07:06:00,mfh,29.95
2021-12-26T07:07:00,mfh,30.55
2021-12-26T07:08:00,mfh,30.84
2021-12-26T07:09:00,mfh,31.12
2021-12-26T07:10:00,mfh,30.75
2021-12-26T07:11:00,mfh,31.03
2021-12-26T07:12:00,mfh,29.99
2021-12-26T07:13:00,mfh,30.01
2021-12-26T07:14:00,mfh,29.68
2021-12-26T07:15:00,mfh,29.71
2021-12-26T07:16:00,mfh,30.40
2021-12-26T07:17:00,mfh,31.13
2021-12-26T07:18:00,mfh,30.50
2021-12-26T07:19:00,mfh,28.14
2021-12-26T07:20:00,mfh,27.41
2021-12-26T07:21:00,mfh,27.56
2021-12-26T07:22:00,mfh,27.32
2021-12-26T07:23:00,mfh,27.90
2021-12-26T07:24:00,mfh,27.76
2021-12-26T07:25:00,mfh,27.72
2021-12-26T07:26:00,mfh,27.72
2021-12-26T07:27:00,mfh,27.88
2021-12-26T07:28:00,mfh,27.95
2021-12-26T07:29:00,mfh,27.26
2021-12-26T07:30:00,mfh,27.16
2021-12-26T07:31:00,mfh,27.15
2021-12-26T07:32:00,mfh,27.73
2021-12-26T07:33:00,mfh,28.03
2021-12-26T07:34:00,mfh,27.89
2021-12-26T07:35:00,mfh,28.10
2021-12-26T07:36:00,mfh,28.27
2021-12-26T07:37:00,mfh,27.56
2021-12-26T07:38:00,mfh,27.53
2021-12-26T07:39:00,mfh,27.67
2021-12-26T07:40:00,mfh,27.53
2021-12-26T07:41:00,mfh,27.86
2021-12-26T07:42:00,mfh,28.04
2021-12-26T07:43:00,mfh,27.84
2021-12-26T07:44:00,mfh,27.94
2021-12-26T07:45:00,mfh,28.05
2021-12-26T07:46:00,mfh,27.34
2021-12-26T07:47:00,mfh,27.22
2021-12-26T07:48:00,mfh,27.31
2021-12-26T07:49:00,mfh,27.95
2021-12-26T07:50:00,mfh,27.86
2021-12-26T07:51:00,mfh,27.93
2021-12-26T07:52:00,mfh,28.21
2021-12-26T07:53:00,mfh,28.10
2021-12-26T07:54:00,mfh,27.40
2021-12-26T07:55:00,mfh,27.13
2021-12-26T07:56:00,mfh,27.20
2021-12-26T07:57:00,mfh,27.54
2021-12-26T07:58:00,mfh,27.98
2021-12-26T07:59:00,mfh,27.89
2021-12-26T08:00:00,mfh,28.20
2021-12-26T08:01:00,mfh,27.82
2021-12-26T08:02:00,mfh,27.12
2021-12-26T08:03:00,mfh,27.40
2021-12-26T08:04:00,mfh,28.12
2021-12-26T08:05:00,mfh,27.33
2021-12-26T08:06:00,mfh,28.08
2021-12-26T08:07:00,mfh,28.02
2021-12-26T08:08:00,mfh,28.57
2021-12-26T08:09:00,mfh,28.59
2021-12-26T08:10:00,mfh,28.05
2021-12-26T08:11:00,mfh,27.21
2021-12-26T08:12:00,mfh,27.26
2021-12-26T08:13:00,mfh,27.26
2021-12-26T08:14:00,mfh,29.75
2021-12-26T08:15:00,mfh,29.73
2021-12-26T08:16:00,mfh,30.40
2021-12-26T08:17:00,mfh,29.68
2021-12-26T08:18:00,mfh,29.83
2021-12-26T08:19:00,mfh,28.91
2021-12-26T08:20:00,mfh,29.02
2021-12-26T08:21:00,mfh,29.18
2021-12-26T08:22:00,mfh,30.36
2021-12-26T08:23:00,mfh,29.89
2021-12-26T08:24:00,mfh,30.69
2021-12-26T08:25:00,mfh,29.89
2021-12-26T08:26:00,mfh,30.06
2021-12-26T08:27:00,mfh,29.25
2021-12-26T08:28:00,mfh,29.18
2021-12-26T08:29:00,mfh,29.19
2021-12-26T08:30:00,mfh,29.08
2021-12-26T08:31:00,mfh,30.50
2021-12-26T08:32:00,mfh,31.52
2021-12-26T08:33:00,mfh,30.83
2021-12-26T08:34:00,mfh,30.78
2021-12-26T08:35:00,mfh,27.55
2021-12-26T08:36:00,mfh,27.37
2021-12-26T08:37:00,mfh,27.36
2021-12-26T08:38:00,mfh,27.28
2021-12-26T08:39:00,mfh,27.71
2021-12-26T08:40:00,mfh,28.28
2021-12-26T08:41:00,mfh,27.81
2021-12-26T08:42:00,mfh,27.78
2021-12-26T08:43:00,mfh,27.91
2021-12-26T08:44:00,mfh,27.20
2021-12-26T08:45:00,mfh,27.43
2021-12-26T08:46:00,mfh,27.31
2021-12-26T08:47:00,mfh,27.28
2021-12-26T08:48:00,mfh,28.00
2021-12-26T08:49:00,mfh,27.92
2021-12-26T08:50:00,mfh,27.91
2021-12-26T08:51:00,mfh,28.03
2021-12-26T08:52:00,mfh,27.28
2021-12-26T08:53:00,mfh,27.20
2021-12-26T08:54:00,mfh,27.31
2021-12-26T08:55:00,mfh,27.45
2021-12-26T08:56:00,mfh,27.95
2021-12-26T08:57:00,mfh,27.89
2021-12-26T08:58:00,mfh,28.15
2021-12-26T08:59:00,mfh,28.13
2021-12-26T09:00:00,mfh,28.13
2021-12-26T09:01:00,mfh,27.47
2021-12-26T09:02:00,mfh,27.88
2021-12-26T09:03:00,mfh,27.67
2021-12-26T09:04:00,mfh,28.30
2021-12-26T09:05:00,mfh,28.20
2021-12-26T09:06:00,mfh,28.81
2021-12-26T09:07:00,mfh,28.05
2021-12-26T09:08:00,mfh,28.23
2021-12-26T09:09:00,mfh,27.44
2021-12-26T09:10:00,mfh,27.53
2021-12-26T09:11:00,mfh,27.48
2021-12-26T09:12:00,mfh,27.66
2021-12-26T09:13:00,mfh,28.53
2021-12-26T09:14:00,mfh,28.18
2021-12-26T09:15:00,mfh,28.25
2021-12-26T09:16:00,mfh,28.29
2021-12-26T09:17:00,mfh,27.50
2021-12-26T09:18:00,mfh,27.60
2021-12-26T09:19:00,mfh,27.42
2021-12-26T09:20:00,mfh,27.32
2021-12-26T09:21:00,mfh,27.98
2021-12-26T09:22:00,mfh,28.05
2021-12-26T09:23:00,mfh,27.95
2021-12-26T09:24:00,mfh,28.01
2021-12-26T09:25:00,mfh,28.21
2021-12-26T09:26:00,mfh,27.38
2021-12-26T09:27:00,mfh,27.95
2021-12-26T09:28:00,mfh,27.26
2021-12-26T09:29:00,mfh,27.94
2021-12-26T09:30:00,mfh,27.82
2021-12-26T09:31:00,mfh,30.02
2021-12-26T09:32:00,mfh,30.58
2021-12-26T09:33:00,mfh,29.64
2021-12-26T09:34:00,mfh,29.70
2021-12-26T09:35:00,mfh,29.80
2021-12-26T09:36:00,mfh,29.56
2021-12-26T09:37:00,mfh,29.43
2021-12-26T09:38:00,mfh,30.19
2021-12-26T09:39:00,mfh,30.16
2021-12-26T09:40:00,mfh,30.06
2021-12-26T09:41:00,mfh,30.24
2021-12-26T09:42:00,mfh,29.57
2021-12-26T09:43:00,mfh,30.69
2021-12-26T09:44:00,mfh,29.46
2021-12-26T09:45:00,mfh,29.50
2021-12-26T09:46:00,mfh,30.12
2021-12-26T09:47:00,mfh,30.12
2021-12-26T09:48:00,mfh,30.08
2021-12-26T09:49:00,mfh,30.06
2021-12-26T09:50:00,mfh,29.46
2021-12-26T09:51:00,mfh,29.71
2021-12-26T09:52:00,mfh,29.67
2021-12-26T09:53:00,mfh,27.69
2021-12-26T09:54:00,mfh,28.15
2021-12-26T09:55:00,mfh,28.14
2021-12-26T09:56:00,mfh,28.13
2021-12-26T09:57:00,mfh,28.15
2021-12-26T09:58:00,mfh,27.70
2021-12-26T09:59:00,mfh,27.65
2021-12-26T10:00:00,mfh,27.87
2021-12-26T10:01:00,mfh,27.92
2021-12-26T10:02:00,mfh,29.04
2021-12-26T10:03:00,mfh,29.27
2021-12-26T10:04:00,mfh,28.84
2021-12-26T10:05:00,mfh,28.30
2021-12-26T10:06:00,mfh,28.32
2021-12-26T10:07:00,mfh,27.52
2021-12-26T10:08:00,mfh,27.28
2021-12-26T10:09:00,mfh,28.33
2021-12-26T10:10:00,mfh,27.61
2021-12-26T10:11:00,mfh,28.32
2021-12-26T10:12:00,mfh,28.23
2021-12-26T10:13:00,mfh,28.26
2021-12-26T10:14:00,mfh,28.31
2021-12-26T10:15:00,mfh,27.54
2021-12-26T10:16:00,mfh,27.68
2021-12-26T10:17:00,mfh,27.47
2021-12-26T10:18:00,mfh,27.63
2021-12-26T10:19:00,mfh,28.19
2021-12-26T10:20:00,mfh,28.06
2021-12-26T10:21:00,mfh,28.19
2021-12-26T10:22:00,mfh,28.72
2021-12-26T10:23:00,mfh,27.99
2021-12-26T10:24:00,mfh,27.49
2021-12-26T10:25:00,mfh,27.65
2021-12-26T10:26:00,mfh,27.63
2021-12-26T10:27:00,mfh,28.75
2021-12-26T10:28:00,mfh,28.91
2021-12-26T10:29:00,mfh,29.29
2021-12-26T10:30:00,mfh,28.63
2021-12-26T10:31:00,mfh,27.91
2021-12-26T10:32:00,mfh,28.13
2021-12-26T10:33:00,mfh,27.88
2021-12-26T10:34:00,mfh,27.50
2021-12-26T10:35:00,mfh,27.38
2021-12-26T10:36:00,mfh,28.20
2021-12-26T10:37:00,mfh,28.23
2021-12-26T10:38:00,mfh,28.19
2021-12-26T10:39:00,mfh,28.01
2021-12-26T10:40:00,mfh,28.21
2021-12-26T10:41:00,mfh,27.56
2021-12-26T10:42:00,mfh,27.38
2021-12-26T10:43:00,mfh,27.31
2021-12-26T10:44:00,mfh,27.85
2021-12-26T10:45:00,mfh,27.97
2021-12-26T10:46:00,mfh,28.23
2021-12-26T10:47:00,mfh,28.10
2021-12-26T10:48:00,mfh,28.40
2021-12-26T10:49:00,mfh,27.22
2021-12-26T10:50:00,mfh,27.26
2021-12-26T10:51:00,mfh,29.26
2021-12-26T10:52:00,mfh,29.87
2021-12-26T10:53:00,mfh,30.78
2021-12-26T10:54:00,mfh,31.05
2021-12-26T10:55:00,mfh,30.77
2021-12-26T10:56:00,mfh,30.96
2021-12-26T10:57:00,mfh,30.21
2021-12-26T10:58:00,mfh,29.40
2021-12-26T10:59:00,mfh,29.14
2021-12-26T11:00:00,mfh,30.15
2021-12-26T11:01:00,mfh,29.80
2021-12-26T11:02:00,mfh,29.81
2021-12-26T11:03:00,mfh,29.72
2021-12-26T11:04:00,mfh,29.77
2021-12-26T11:05:00,mfh,29.29
2021-12-26T11:06:00,mfh,29.08
2021-12-26T11:07:00,mfh,28.99
2021-12-26T11:08:00,mfh,29.23
2021-12-26T11:09:00,mfh,30.27
2021-12-26T11:10:00,mfh,29.59
2021-12-26T11:11:00,mfh,29.67
2021-12-26T11:12:00,mfh,27.98
2021-12-26T11:13:00,mfh,27.27
2021-12-26T11:14:00,mfh,27.42
2021-12-26T11:15:00,mfh,27.91
2021-12-26T11:16:00,mfh,28.42
2021-12-26T11:17:00,mfh,28.59
2021-12-26T11:18:00,mfh,27.90
2021-12-26T11:19:00,mfh,27.99
2021-12-26T11:20:00,mfh,27.73
2021-12-26T11:21:00,mfh,28.02
2021-12-26T11:22:00,mfh,27.18
2021-12-26T11:23:00,mfh,27.75
2021-12-26T11:24:00,mfh,27.27
2021-12-26T11:25:00,mfh,27.20
2021-12-26T11:26:00,mfh,28.03
2021-12-26T11:27:00,mfh,28.03
2021-12-26T11:28:00,mfh,28.66
2021-12-26T11:29:00,mfh,28.30
2021-12-26T11:30:00,mfh,27.53
2021-12-26T11:31:00,mfh,27.44
2021-12-26T11:32:00,mfh,27.19
2021-12-26T11:33:00,mfh,27.28
2021-12-26T11:34:00,mfh,28.11
2021-12-26T11:35:00,mfh,27.82
2021-12-26T11:36:00,mfh,27.91
2021-12-26T11:37:00,mfh,27.91
2021-12-26T11:38:00,mfh,27.66
2021-12-26T11:39:00,mfh,27.48
2021-12-26T11:40:00,mfh,27.76
2021-12-26T11:41:00,mfh,27.79
2021-12-26T11:42:00,mfh,29.18
2021-12-26T11:43:00,mfh,28.44
2021-12-26T11:44:00,mfh,28.41
2021-12-26T11:45:00,mfh,28.74
2021-12-26T11:46:00,mfh,28.62
2021-12-26T11:47:00,mfh,27.72
2021-12-26T11:48:00,mfh,27.61
2021-12-26T11:49:00,mfh,27.79
2021-12-26T11:50:00,mfh,27.70
2021-12-26T11:51:00,mfh,28.31
2021-12-26T11:52:00,mfh,28.20
2021-12-26T11:53:00,mfh,28.29
2021-12-26T11:54:00,mfh,28.19
2021-12-26T11:55:00,mfh,27.64
2021-12-26T11:56:00,mfh,27.74
2021-12-26T11:57:00,mfh,27.91
2021-12-26T11:58:00,mfh,27.72
2021-12-26T11:59:00,mfh,28.55
2021-12-26T12:00:00,mfh,28.45
2021-12-26T12:01:00,mfh,28.29
2021-12-26T12:02:00,mfh,28.23
2021-12-26T12:03:00,mfh,27.39
2021-12-26T12:04:00,mfh,27.18
2021-12-26T12:05:00,mfh,27.29
2021-12-26T12:06:00,mfh,27.55
2021-12-26T12:07:00,mfh,27.87
2021-12-26T12:08:00,mfh,27.83
2021-12-26T12:09:00,mfh,27.76
2021-12-26T12:10:00,mfh,27.70
2021-12-26T12:11:00,mfh,37.27
2021-12-26T12:12:00,mfh,29.06
2021-12-26T12:13:00,mfh,28.91
2021-12-26T12:14:00,mfh,29.03
2021-12-26T12:15:00,mfh,29.58
2021-12-26T12:16:00,mfh,29.81
2021-12-26T12:17:00,mfh,29.75
2021-12-26T12:18:00,mfh,29.76
2021-12-26T12:19:00,mfh,29.78
2021-12-26T12:20:00,mfh,29.25
2021-12-26T12:21:00,mfh,29.27
2021-12-26T12:22:00,mfh,29.97
2021-12-26T12:23:00,mfh,29.93
2021-12-26T12:24:00,mfh,29.53
2021-12-26T12:25:00,mfh,29.49
2021-12-26T12:26:00,mfh,29.73
2021-12-26T12:27:00,mfh,30.70
2021-12-26T12:28:00,mfh,31.21
2021-12-26T12:29:00,mfh,31.05
2021-12-26T12:30:00,mfh,31.21
2021-12-26T12:31:00,mfh,31.75
2021-12-26T12:32:00,mfh,31.65
2021-12-26T12:33:00,mfh,29.53
2021-12-26T12:34:00,mfh,29.65
2021-12-26T12:35:00,mfh,29.56
2021-12-26T12:36:00,mfh,29.71
2021-12-26T12:37:00,mfh,28.96
2021-12-26T12:38:00,mfh,28.96
2021-12-26T12:39:00,mfh,29.90
2021-12-26T12:40:00,mfh,29.81
2021-12-26T12:41:00,mfh,29.80
2021-12-26T12:42:00,mfh,29.80
2021-12-26T12:43:00,mfh,29.84
2021-12-26T12:44:00,mfh,29.89
2021-12-26T12:45:00,mfh,29.23
2021-12-26T12:46:00,mfh,29.21
2021-12-26T12:47:00,mfh,29.27
2021-12-26T12:48:00,mfh,29.78
2021-12-26T12:49:00,mfh,29.80
2021-12-26T12:50:00,mfh,29.89
2021-12-26T12:51:00,mfh,29.78
2021-12-26T12:52:00,mfh,29.57
2021-12-26T12:53:00,mfh,28.82
2021-12-26T12:54:00,mfh,28.77
2021-12-26T12:55:00,mfh,28.83
2021-12-26T12:56:00,mfh,29.17
2021-12-26T12:57:00,mfh,29.83
2021-12-26T12:58:00,mfh,29.94
2021-12-26T12:59:00,mfh,29.83
2021-12-26T13:00:00,mfh,30.20
2021-12-26T13:01:00,mfh,29.21
2021-12-26T13:02:00,mfh,28.88
2021-12-26T13:03:00,mfh,28.92
2021-12-26T13:04:00,mfh,28.78
2021-12-26T13:05:00,mfh,29.45
2021-12-26T13:06:00,mfh,29.35
2021-12-26T13:07:00,mfh,29.64
2021-12-26T13:08:00,mfh,29.55
2021-12-26T13:09:00,mfh,29.61
2021-12-26T13:10:00,mfh,29.09
2021-12-26T13:11:00,mfh,29.11
2021-12-26T13:12:00,mfh,29.13
2021-12-26T13:13:00,mfh,29.92
2021-12-26T13:14:00,mfh,29.69
2021-12-26T13:15:00,mfh,29.78
2021-12-26T13:16:00,mfh,29.95
2021-12-26T13:17:00,mfh,29.88
2021-12-26T13:18:00,mfh,29.13